Total_Precipitation_Accumulation
1.16 1.29 1.39 1.70 2.01 2.21 2.44 2.67 2.82 2.89 3.17 3.39 3.39 3.29 3.16 2.90 2.79 2.80 2.73 2.62 2.54 2.64 2.65 2.45 2.30 2.31 2.23 2.13 2.08 2.06 2.11 2.00 1.86 1.90 1.84 1.67 1.47 1.34 1.21 1.12 1.10 1.05 1.02
1.06 1.20 1.28 1.47 1.71 1.97 2.25 2.53 2.71 2.81 2.82 2.90 3.16 3.33 3.42 3.28 2.98 2.82 2.78 2.69 2.58 2.57 2.60 2.63 2.55 2.43 2.33 2.26 2.25 2.26 2.32 2.34 2.28 2.25 2.24 2.12 1.95 1.58 1.30 1.22 1.19 1.13 1.12
0.93 1.06 1.19 1.43 1.56 1.73 2.01 2.33 2.52 2.70 2.73 2.77 3.08 3.35 3.51 3.39 3.10 2.73 2.60 2.65 2.63 2.61 2.51 2.50 2.61 2.59 2.48 2.34 2.28 2.26 2.30 2.36 2.37 2.34 2.45 2.26 1.93 1.58 1.40 1.22 1.14 1.14 1.17
0.80 0.87 1.00 1.20 1.36 1.53 1.74 1.96 2.19 2.40 2.62 2.73 2.84 2.93 3.05 3.06 2.83 2.70 2.61 2.67 2.71 2.69 2.62 2.54 2.54 2.56 2.48 2.33 2.29 2.24 2.23 2.29 2.33 2.33 2.25 2.11 1.78 1.61 1.52 1.36 1.22 1.18 1.19
0.80 0.81 0.96 1.16 1.24 1.37 1.64 1.82 1.92 2.14 2.41 2.58 2.63 2.81 2.84 2.86 2.93 2.92 2.84 2.75 2.74 2.68 2.62 2.56 2.54 2.46 2.37 2.32 2.37 2.32 2.30 2.31 2.29 2.23 2.17 2.16 1.93 1.68 1.62 1.50 1.35 1.32 1.26
0.85 0.91 1.05 1.15 1.21 1.30 1.50 1.72 1.76 1.87 2.05 2.36 2.58 2.64 2.62 2.68 2.72 2.74 2.71 2.70 2.71 2.67 2.57 2.47 2.41 2.37 2.35 2.34 2.38 2.43 2.37 2.35 2.36 2.30 2.18 2.19 2.16 1.94 1.83 1.73 1.51 1.49 1.41
0.80 0.90 1.04 1.05 1.11 1.23 1.37 1.53 1.64 1.75 1.85 2.05 2.30 2.48 2.58 2.61 2.64 2.65 2.62 2.54 2.46 2.38 2.34 2.35 2.30 2.24 2.17 2.20 2.29 2.40 2.41 2.34 2.33 2.31 2.26 2.20 2.11 1.97 1.94 1.96 1.82 1.72 1.64
0.69 0.74 0.89 0.97 1.04 1.15 1.24 1.29 1.36 1.45 1.54 1.64 1.81 2.05 2.33 2.47 2.41 2.40 2.36 2.32 2.24 2.21 2.22 2.23 2.23 2.22 2.18 2.14 2.18 2.26 2.32 2.32 2.25 2.15 2.13 2.11 2.05 2.06 2.07 2.07 2.14 2.13 1.91
0.73 0.72 0.80 0.86 0.92 1.05 1.18 1.18 1.19 1.27 1.38 1.43 1.54 1.68 1.94 2.12 2.17 2.19 2.14 2.04 1.98 2.04 2.06 2.09 2.12 2.17 2.18 2.14 2.14 2.18 2.17 2.18 2.18 2.13 2.06 1.99 1.89 1.91 1.93 1.95 2.06 2.27 2.23
0.74 0.71 0.76 0.81 0.82 0.91 1.06 1.10 1.13 1.19 1.33 1.40 1.47 1.55 1.66 1.77 1.94 2.03 1.92 1.86 1.83 1.86 1.88 1.89 1.91 1.95 2.02 2.05 2.07 2.05 2.00 2.00 1.98 1.98 2.03 1.99 1.87 1.87 1.92 1.99 2.04 2.11 2.20
0.76 0.79 0.81 0.84 0.88 0.93 0.99 1.01 1.09 1.16 1.29 1.36 1.36 1.39 1.46 1.52 1.63 1.74 1.76 1.69 1.69 1.70 1.71 1.69 1.71 1.72 1.76 1.84 1.92 1.90 1.90 1.92 1.87 1.87 1.91 1.94 1.90 1.90 1.94 2.03 2.10 2.14 2.22
0.71 0.79 0.80 0.82 0.91 0.96 0.96 0.93 0.98 1.04 1.17 1.22 1.20 1.22 1.29 1.38 1.45 1.52 1.61 1.60 1.59 1.59 1.62 1.59 1.57 1.56 1.55 1.61 1.69 1.73 1.75 1.79 1.80 1.80 1.83 1.87 1.89 1.93 1.95 2.05 2.10 2.08 2.05
0.56 0.62 0.68 0.70 0.75 0.79 0.82 0.88 0.88 0.86 0.93 0.97 0.97 0.99 1.02 1.13 1.26 1.32 1.37 1.43 1.46 1.46 1.48 1.52 1.47 1.45 1.45 1.51 1.55 1.55 1.59 1.63 1.65 1.67 1.72 1.72 1.79 1.86 1.86 1.93 2.01 1.99 1.96
0.49 0.55 0.63 0.61 0.65 0.70 0.71 0.78 0.78 0.77 0.82 0.85 0.84 0.87 0.89 0.93 1.02 1.12 1.16 1.21 1.26 1.30 1.33 1.39 1.37 1.33 1.34 1.42 1.48 1.55 1.56 1.54 1.54 1.55 1.62 1.67 1.71 1.73 1.76 1.86 1.91 1.91 1.95
0.44 0.51 0.61 0.65 0.63 0.69 0.71 0.71 0.77 0.82 0.88 0.89 0.89 0.87 0.85 0.86 0.91 0.99 1.05 1.09 1.11 1.10 1.10 1.16 1.22 1.25 1.28 1.34 1.40 1.48 1.54 1.54 1.53 1.54 1.58 1.66 1.85 1.90 1.87 1.89 1.86 1.88 1.98
0.40 0.43 0.53 0.69 0.64 0.70 0.79 0.79 0.84 0.93 0.95 0.98 0.93 0.90 0.86 0.84 0.83 0.85 0.89 0.94 1.01 1.02 1.03 1.07 1.08 1.13 1.21 1.50 1.57 1.51 1.52 1.57 1.58 1.56 1.52 1.57 1.73 1.73 1.78 1.82 1.84 1.90 2.01
0.37 0.41 0.47 0.63 0.72 0.75 0.86 0.94 0.97 1.02 1.01 1.01 0.94 0.88 0.84 0.83 0.82 0.80 0.82 0.87 0.94 1.01 1.08 1.11 1.13 1.15 1.30 1.57 1.61 1.71 1.61 1.58 1.55 1.50 1.46 1.41 1.39 1.46 1.33 1.45 1.64 1.72 1.75
0.32 0.37 0.42 0.48 0.61 0.66 0.76 0.88 0.96 1.06 1.06 1.05 1.03 0.99 0.97 0.98 1.01 1.01 1.03 1.05 1.04 1.11 1.22 1.29 1.31 1.35 1.45 1.58 1.55 1.63 1.48 1.43 1.38 1.31 1.28 1.24 1.18 1.18 1.24 1.30 1.42 1.36 1.32
0.32 0.32 0.36 0.38 0.45 0.54 0.62 0.74 0.90 1.07 1.18 1.24 1.24 1.25 1.26 1.29 1.32 1.34 1.34 1.34 1.36 1.38 1.39 1.40 1.36 1.35 1.39 1.46 1.43 1.45 1.34 1.33 1.26 1.16 1.13 1.13 1.08 1.22 1.42 1.44 1.39 1.26 1.22
0.32 0.32 0.33 0.35 0.40 0.51 0.60 0.74 0.96 1.16 1.31 1.36 1.39 1.41 1.47 1.52 1.48 1.44 1.40 1.33 1.30 1.34 1.34 1.35 1.33 1.28 1.23 1.29 1.29 1.29 1.21 1.18 1.08 1.04 1.03 1.12 1.12 1.31 1.49 1.44 1.40 1.31 1.10
0.40 0.41 0.43 0.47 0.50 0.57 0.68 0.85 1.00 1.15 1.24 1.29 1.32 1.33 1.31 1.31 1.27 1.24 1.20 1.16 1.13 1.08 1.06 1.04 1.02 1.01 1.06 1.14 1.18 1.23 1.21 1.21 1.15 1.08 1.06 1.07 1.22 1.35 1.47 1.51 1.38 1.31 1.25
0.40 0.49 0.56 0.61 0.61 0.65 0.76 0.86 0.91 0.96 0.97 0.99 1.01 1.02 0.96 0.89 0.89 0.92 0.93 0.92 0.92 0.90 0.86 0.83 0.83 0.82 0.87 0.99 1.08 1.19 1.27 1.30 1.29 1.17 1.07 1.13 1.35 1.46 1.51 1.48 1.42 1.47 1.52
0.24 0.30 0.39 0.45 0.46 0.47 0.53 0.60 0.59 0.57 0.58 0.59 0.63 0.66 0.66 0.63 0.62 0.67 0.71 0.74 0.76 0.78 0.77 0.75 0.76 0.76 0.75 0.83 0.97 1.07 1.22 1.31 1.25 1.16 1.21 1.30 1.40 1.45 1.45 1.46 1.45 1.41 1.35
0.18 0.20 0.23 0.26 0.27 0.28 0.30 0.34 0.34 0.33 0.35 0.40 0.46 0.52 0.56 0.58 0.58 0.60 0.65 0.69 0.72 0.75 0.76 0.77 0.76 0.73 0.70 0.76 0.87 1.01 1.12 1.26 1.26 1.23 1.27 1.31 1.32 1.31 1.32 1.37 1.40 1.36 1.33
0.20 0.21 0.24 0.25 0.25 0.26 0.26 0.28 0.30 0.29 0.31 0.34 0.38 0.44 0.50 0.57 0.59 0.60 0.62 0.69 0.73 0.86 1.04 1.04 0.97 0.97 0.95 0.90 1.11 1.30 1.32 1.34 1.39 1.45 1.42 1.31 1.24 1.25 1.26 1.25 1.26 1.31 1.36
0.24 0.24 0.25 0.28 0.31 0.33 0.34 0.34 0.35 0.35 0.35 0.38 0.40 0.46 0.50 0.55 0.59 0.62 0.64 0.68 0.73 0.81 0.90 0.98 1.05 1.02 1.04 1.11 1.21 1.26 1.32 1.40 1.51 1.60 1.52 1.29 1.17 1.14 1.16 1.20 1.24 1.26 1.30